Location: *
(46.1866°S, 178.5290°W)
Time: 14:59:38
(UTC+00:00)

SJ 16-02 - Pass Details

Date: 19 May 2021
Orbit: 606 x 616 km, 75.0° (Epoch: 21 June)

Event Time Altitude Azimuth Distance (km) Brightness Sun altitude
Rises 04:57:31 0° 192° (SSW) 2,916 4.7 -5.5°
Reaches altitude 10° 05:00:04 10° 179° (S) 2,005 3.8 -5.9°
Maximum altitude 05:03:54 27° 120° (ESE) 1,199 2.3 -6.5°
Drops below altitude 10° 05:07:43 10° 61° (ENE) 1,989 3.6 -7.1°
Sets 05:10:14 0° 49° (NE) 2,887 4.5 -7.5°
